COSMOS 1253

Satellite information

Favourite Embed

Satellite Type and Status

PAYLOADIN ORBIT

Key statistics

Satellite COSMOS 1253 at a glance.

Uptime

16308

Days in orbit

Revolutions

≈ 12.5

Per day

Orbit

LEO

Low Earth Orbit

Inclination

74.0

Latest

Satellite identification and parameters

Extended collection of information and parameters for COSMOS 1253.

Object identification

Identified? True

Debris? False

Object name: COSMOS 1253

International designator: 1981-022D

Object number (NORAD): 12323

Object ID (CCSDS): 12323

Country: COMMONWEALTH OF INDEPENDENT STATES (CIS)

Current information (Y/N): Y

RCS size: MEDIUM

Orbital parameters

Period: 115.585 minutes

Inclination: 74.0278 deg

SMA: 7860.094 km

Apoapsis: 1495.852 km

Periapsis: 1468.065 km

RAAN: 87.6054 deg

Eccentricy: 0.00176758

Argument of periapsis: 35.397 deg

Mean anomaly: 22.31 deg

Mean motion: 12.45836879 rev/day

Mean motion (dot): -0.00000003 rev/day2

B* drag term: 0.000089125185 1/REarth

Two-line elements (TLE)

Creation date: Oct. 28, 2025, 7:11 p.m.

Reference frame: TEME

Reference center: EARTH

Epoch: Oct. 28, 2025, 11:23 a.m. UTC

TLE line 0: 0 COSMOS 1253

TLE line 1: 1 12323U 81022D 25301.47499017 -.00000003 00000-0 89125-4 0 9999

TLE line 2: 2 12323 74.0278 87.6054 0017676 35.3970 22.3100 12.45836879 30469

Live tracking on map

Real-time ground track for satellite COSMOS 1253.

In-orbit conjunctions

A list of the most updated potential collisions computed for object COSMOS 1253.

Target Orbit TCA Probability of collision Miss distance Type
THORAD DELTA 1 DEB SSO 2025-08-29 00:23:27 0.0001193045 859.0 (m) DEBRIS

Associated space launch

Military communications satellites

COSMOS 1253 was lifted into orbit during the mission ‘Kosmos-3M | Strela-1M 209-216’, on board a Kosmos-3M space rocket.

The launch took place on March 6, 1981, 11:31 a.m. from 132/2.

For more information about the launch, click the button.

Launch to space Kosmos-3M | Strela-1M 209-216
Kosmos-3M | Strela-1M 209-216

Agency: N/A

Status: Launch Successful

Launch date: March 6, 1981, 11:31 a.m. UTC

Rocket: Kosmos-3M

Launch pad: 132/2

Location: Plesetsk Cosmodrome, Russian Federation

...

Latest news about this satellite

There are no fresh news available about this satellite. Check back as we update our databases every day.


Newsletter sign-up

Weekly statistics, charts and insights to help you stay on top of the space industry.